Regional Weather Roundup
Issued by NWS

Home | Current Version | Previous Version | Graphics & Text | Print | Product List | Glossary On
Versions: 1 2 3 4 5 6 7 8 9 10 11 12 13 14 15 16 17 18 19 20 21 22 23 24 25 26 27 28 29 30 31 32 33 34 35 36 37 38 39 40 41 42 43 44 45 46 47 48 49 50
487
ASUS43 KDTX 271410
RWRMI
MICHIGAN HOURLY REGIONAL WEATHER ROUNDUP
NATIONAL WEATHER SERVICE DETROIT/PONTIAC MI
ISSUED BY NATIONAL WEATHER SERVICE GRAND RAPIDS MI
1000 AM EDT THU JUL 27 2017

NOTE: "FAIR" INDICATES FEW OR NO CLOUDS BELOW 12,000 FEET WITH NO
SIGNIFICANT WEATHER AND/OR OBSTRUCTION TO VISIBILITY.

MIZ047>049-052>055-059>063-066>070-074>076-081>083-271500-
SOUTHEAST LOWER MICHIGAN

CITY           SKY/WX    TMP DP  RH WIND       PRES   REMARKS
ADRIAN         PTSUNNY   76  66  71 NE5       29.95F
ALMA           CLOUDY    69  68  96 NE8       29.96F FOG
ANN ARBOR      CLOUDY    78  67  68 NW5       29.94F
BAD AXE        CLOUDY    70  68  94 CALM      29.97S FOG
DETROIT CITY   CLOUDY    77  65  66 VRB3      29.94F
DETROIT        PTSUNNY   76  67  73 CALM      29.94F
FLINT          RAIN      68  65  90 NW5       29.97S FOG
GROSSE ILE     CLOUDY    76  66  71 S3        29.93F
HILLSDALE      PTSUNNY   77  66  69 NE3       29.94S
HOWELL         CLOUDY    74  65  73 CALM      29.96F

CITY           SKY/WX    TMP DP  RH WIND       PRES   REMARKS
JACKSON        SUNNY     80  65  59 VRB3      29.94F
LANSING        CLOUDY    73  65  75 NE12      29.96S
MASON          PTSUNNY   74  67  78 N5        29.95F
MONROE         CLOUDY    75  67  74 CALM      29.93F
MT. CLEMENS    PTSUNNY   77  67  72 W2        29.94S
PONTIAC        PTSUNNY   75  66  73 N5        29.95S
PORT HOPE        N/A     71  68  90 VRB3      29.95S
PORT HURON     CLOUDY    73  68  83 CALM      29.96R
TRI CITIES     RAIN      70  70 100 NW3       29.98S VSB 1
YPSILANTI      MOSUNNY   76  68  76 CALM      29.95F
$$
MIZ043>046-050>051-056>058-064>065-071>073-077>080-271500-
SOUTHWEST LOWER MICHIGAN

CITY           SKY/WX    TMP DP  RH WIND       PRES   REMARKS
BATTLE CREEK   CLOUDY    78  68  71 CALM      29.95R
BENTON HARBOR  SUNNY     79  69  71 CALM      29.92S
BIG RAPIDS     CLOUDY    71  66  84 E8        29.97S
COLDWATER      MOSUNNY   75  69  81 CALM      29.94S
HOLLAND        PTSUNNY   77  69  76 E5        29.94F
GRAND RAPIDS   PTSUNNY   75  69  81 E7        29.94F
KALAMAZOO      CLOUDY    78  66  66 CALM      29.94S
MARSHALL       MOSUNNY   76  67  73 CALM      29.94S
MOUNT PLEASANT CLOUDY    71  68  91 CALM      29.97S FOG
MUSKEGON       CLOUDY    76  69  79 NE9       29.95S
STURGIS        CLOUDY    73  68  84 CALM      29.94S
$$
MIZ016>042-271500-
NORTHERN LOWER MICHIGAN

CITY           SKY/WX    TMP DP  RH WIND       PRES   REMARKS
ALPENA         SUNNY     70  64  81 N7        29.99F
BEAVER ISLAND  SUNNY     70  60  70 N10       30.02R
BELLAIRE       SUNNY     70  64  80 CALM      30.00S
CADILLAC       SUNNY     73  60  63 NE8       30.00S
CHARLEVOIX     SUNNY     67  67 100 N6        30.03S
GAYLORD        SUNNY     70  60  70 NE7       30.01S
HOUGHTON LAKE  SUNNY     72  61  68 N7        30.00S
MANISTEE       SUNNY     73  65  75 NE5       29.98S
OSCODA         PTSUNNY   73  68  82 E9        29.97S
PELLSTON       SUNNY     70  60  70 N10       30.01S
TRAVERSE CITY  MOSUNNY   71  64  78 NE6       29.99R
LUDINGTON      CLOUDY    72  65  78 NE6       29.97S
$$
MIZ007>008-015-271500-
EASTERN UPPER MICHIGAN

CITY           SKY/WX    TMP DP  RH WIND       PRES   REMARKS
KINROSS        SUNNY     66  59  78 N8        30.02S
MACKINAC ISLAN SUNNY     66  62  85 N9        30.01S
NEWBERRY       SUNNY     66  61  84 NE8       30.03S
S. S. MARIE    SUNNY     70  59  68 N7        30.01S
$$
MIZ004>006-011>014-085-271500-
CENTRAL UPPER MICHIGAN

CITY           SKY/WX    TMP DP  RH WIND       PRES   REMARKS
MANISTIQUE     SUNNY     68  61  77 NE9       30.03R
ESCANABA       SUNNY     71  61  70 NE7       30.03S
MENOMINEE      SUNNY     71  61  70 NE7       30.04R
SAWYER-GWINN   SUNNY     66  57  72 N13       30.08R
$$
MIZ001>003-009>011-084-271500-
WESTERN UPPER MICHIGAN

CITY           SKY/WX    TMP DP  RH WIND       PRES   REMARKS
IRON MOUNTAIN  SUNNY     71  55  56 NE3       30.06R
HOUGHTON       SUNNY     68  55  63 E7        30.08R
COPPER HARBOR    N/A     64  51  62 CALM      30.08R
IRONWOOD       SUNNY     70  60  70 CALM      30.10R
$$

ABBREVIATIONS USED IN REMARKS
   TC - TEMPERATURE IN CELSIUS
  WCI - WIND CHILL INDEX
   HX - HEAT INDEX
  VSB - VISIBILITY





USA.gov is the U.S. government's official web portal to all federal, state and local government web resources and services.